Torna al catalogo

STARLINK-4399

AttivoComunicazioniSSO
NORAD 53469·PAYLOAD·🇺🇸 United States

Lanciato Aug 12, 2022 da Vandenberg Space Force Base

Loading…

Prossimi Passaggi (prossime 24 ore)

TLE

AggiornatoSource: CelesTrak SupGP

Epoca: Sep 14, 2026, 20:53 UTC

1 53469C 22099E   26257.87062500 -.00025675  00000+0 -79699-3 0  2575
2 53469  97.2865  15.6738 0001009  98.8174  22.3368 15.33453157    15

Traccia STARLINK-4399 in tempo reale con AllMySat

Download on the App Store